EHI
0 0 0 0 0 0 0 0 0 0 0 0 0 0 0 0 0 0 0 0 0 0 0 0 0 0 0 0 0 0 0 0 0 0 0 0 0 0 0 0 0 0 0
0 0 0 0 0 0 0 0 0 0 0 0 0 0 0 0 0 0 0 0 0 0 0 0 0 0 0 0 0 0 0 0 0 0 0 0 0 0 0 0 0 0 0
0 0 0 1 1 1 1 0 0 0 0 0 0 0 0 0 0 0 0 0 0 0 0 0 0 0 0 0 0 0 0 0 0 0 0 0 0 0 0 0 0 0 0
0 0 0 1 2 2 1 1 1 0 0 0 0 0 0 0 0 0 0 0 0 0 0 0 0 0 1 0 0 0 0 0 0 0 0 0 0 0 0 0 0 0 0
1 0 0 0 1 2 2 1 1 1 0 0 0 0 0 0 0 0 0 0 0 0 0 1 1 0 0 0 1 1 1 0 0 0 0 0 0 0 0 0 0 0 0
1 1 1 1 0 1 2 2 1 1 1 1 0 0 0 0 0 0 0 0 0 0 0 1 1 1 0 0 1 2 1 1 1 1 1 0 0 0 0 0 0 0 0
1 2 2 1 1 1 1 1 1 1 2 2 2 1 0 0 0 0 0 0 0 0 0 1 1 1 0 0 1 1 1 1 1 2 1 1 0 0 0 0 0 0 0
1 2 2 2 1 2 2 1 1 2 2 3 4 2 1 0 0 0 0 0 1 0 0 0 1 1 0 0 0 1 0 0 1 1 1 1 0 0 0 0 0 0 0
2 3 3 2 2 3 3 2 2 3 3 4 5 4 3 1 0 0 0 0 0 0 0 0 0 0 0 0 0 0 0 0 0 0 0 0 0 0 0 0 0 0 0
4 4 3 3 3 3 2 2 2 4 5 5 5 6 5 3 2 1 0 0 0 0 0 0 0 1 1 2 1 0 0 0 0 0 0 0 0 0 0 0 0 0 0
4 4 4 3 3 3 1 1 1 2 4 5 6 7 7 6 5 4 3 1 1 0 0 0 1 2 2 2 1 0 0 0 0 0 0 0 0 0 0 0 0 0 0
4 4 4 4 3 3 2 1 1 1 2 3 5 7 8 8 8 7 6 3 1 0 0 1 2 2 1 1 1 0 0 0 0 0 0 0 0 0 0 0 0 0 0
5 6 6 5 4 3 3 3 2 1 1 2 4 5 7 7 8 9 7 4 1 1 1 1 1 1 1 1 1 0 0 0 0 0 0 0 0 0 0 0 0 0 0
8 9 10 8 6 5 4 5 5 4 3 3 3 5 7 7 7 7 8 6 3 2 2 1 1 2 4 4 2 1 1 0 0 0 0 0 0 0 0 0 0 0 0
12 13 12 9 8 8 9 9 8 7 6 5 5 5 8 8 5 5 7 8 5 2 2 3 4 6 7 6 3 2 2 1 0 0 0 0 0 0 0 0 0 0 0
15 13 12 10 9 11 13 13 11 8 7 7 6 5 6 6 3 3 4 6 5 2 2 5 8 8 7 4 2 2 2 1 1 0 0 0 0 0 0 0 0 0 0
13 12 11 10 10 11 14 14 11 8 6 6 5 4 3 3 2 2 2 4 4 2 2 4 7 6 4 2 1 1 1 2 2 1 0 0 0 0 0 0 0 0 0
11 10 10 10 9 10 11 11 10 8 5 4 3 3 3 3 3 3 2 2 2 2 2 2 3 3 2 2 2 1 1 2 2 1 0 0 0 0 0 0 0 0 0
11 10 10 10 10 8 8 8 8 7 4 3 2 2 2 3 4 4 2 1 1 1 1 1 1 1 1 1 2 1 1 2 2 1 0 0 0 0 0 0 0 0 0
11 10 9 9 9 6 6 7 6 6 3 2 1 1 1 1 3 3 2 1 1 1 1 0 0 0 1 2 2 1 1 3 3 1 0 0 0 0 0 0 0 0 0
10 9 7 6 6 5 5 6 6 5 4 3 2 1 1 0 1 1 1 2 2 2 1 1 0 0 1 2 3 3 3 3 3 2 1 0 0 0 0 0 0 0 0
10 9 6 5 5 4 3 3 5 5 4 4 4 3 2 1 0 0 0 1 1 2 2 2 1 0 1 2 3 3 3 3 3 3 3 2 2 2 2 1 0 0 0
11 11 9 7 7 4 1 0 1 2 2 3 4 5 4 1 0 1 1 1 1 1 2 2 1 1 0 1 2 2 2 2 3 3 4 4 4 4 3 1 0 0 0
13 13 12 11 9 5 1 0 0 1 1 2 4 5 4 2 1 1 2 2 2 2 1 1 1 1 0 0 0 0 1 1 1 2 4 3 3 2 2 1 0 0 0
16 16 15 13 10 5 2 1 1 2 2 2 3 3 3 2 1 1 1 2 3 2 1 0 1 1 0 0 0 0 0 0 0 1 2 2 1 0 0 0 0 0 0
17 17 15 12 9 5 2 1 1 2 2 2 2 2 1 1 0 0 0 1 2 2 2 1 0 0 0 0 0 0 0 0 0 0 1 2 1 0 0 0 1 1 1
Wind_Speed
3 3 2 2 2 3 4 3 3 4 3 2 2 2 2 1 2 2 6 9 8 7 7 8 7 7 7 8 7 7 7 7 7 7 7 7 7 7 6 6 6 5 5
3 3 3 3 2 2 2 2 3 3 2 2 2 2 2 2 2 2 3 8 9 8 8 8 8 8 8 8 8 8 8 8 8 7 7 7 7 7 7 7 6 6 5
3 2 2 3 3 3 3 3 3 2 3 3 3 2 2 2 2 3 3 3 7 10 9 9 9 9 9 9 9 10 9 9 9 8 8 8 7 7 7 7 7 6 5
3 3 2 2 3 3 3 3 3 2 2 2 2 2 2 2 3 3 4 4 3 5 9 10 9 9 10 10 10 11 11 10 10 9 9 9 9 8 8 7 7 7 6
5 4 3 2 3 3 2 3 2 2 2 2 3 3 3 3 4 4 4 4 4 4 4 9 11 9 10 11 11 11 11 11 11 11 11 10 10 9 9 8 8 8 7
5 5 4 4 4 3 3 2 2 2 2 3 3 2 3 3 4 4 5 5 5 6 6 6 7 9 11 11 11 11 12 12 12 12 11 11 11 10 9 8 8 9 8
5 5 4 4 5 4 4 4 4 4 4 3 3 3 3 5 4 4 4 4 4 4 4 4 5 4 6 11 11 11 11 12 12 12 12 12 11 10 10 9 9 9 8
6 6 5 4 4 4 4 4 4 3 3 3 3 3 3 4 4 4 3 4 3 3 4 4 4 4 5 4 6 12 12 11 11 11 11 11 11 10 10 10 9 9 8
6 5 5 5 4 5 5 5 5 6 4 4 4 4 3 2 1 3 3 3 3 2 3 3 4 4 6 5 5 8 10 10 11 11 11 11 10 9 9 10 10 9 9
6 6 5 5 5 5 4 6 6 5 5 5 4 4 5 4 3 2 3 3 3 3 4 4 4 4 5 4 3 3 8 9 10 10 10 10 10 10 10 10 10 10 10
5 5 5 5 5 5 5 5 4 6 5 5 4 4 5 4 6 5 4 3 3 3 3 3 3 3 3 4 3 4 6 7 7 7 8 8 8 8 9 9 9 9 9
4 5 5 4 5 4 5 5 5 6 6 6 5 5 5 5 5 5 5 5 4 3 2 2 3 3 3 3 3 4 6 6 6 6 6 6 6 6 7 8 9 9 8
3 3 4 4 4 4 5 5 5 5 6 6 6 5 5 6 5 5 5 5 4 3 2 2 3 3 2 2 1 5 5 6 6 6 6 6 5 6 6 5 6 7 6
2 2 3 4 4 4 4 4 5 5 5 5 6 6 5 5 5 5 5 4 4 4 3 3 2 2 1 1 2 3 2 6 6 6 6 6 5 5 5 5 5 5 5
3 3 3 3 3 4 4 4 3 4 4 5 5 5 5 4 4 4 5 5 5 5 4 3 2 1 0 0 1 1 1 5 6 6 6 6 6 6 5 5 5 5 5
2 2 3 3 3 3 3 3 3 3 3 3 3 4 4 4 4 4 4 5 5 5 4 1 1 0 0 0 2 1 1 5 5 6 6 6 6 6 6 5 5 5 5
2 3 3 3 3 3 3 3 3 3 3 3 3 3 3 4 4 3 4 4 4 4 4 2 1 0 1 1 0 0 0 1 2 5 6 6 6 6 6 6 6 6 6
3 2 2 3 3 3 3 3 3 3 2 2 2 3 3 3 3 3 3 3 3 3 4 3 2 2 1 1 1 1 1 1 1 5 6 6 6 6 6 6 6 6 6
2 1 1 2 2 1 1 2 2 2 1 1 2 2 3 3 3 2 3 2 2 3 3 3 2 1 2 2 1 1 1 1 1 3 5 5 5 6 6 6 7 7 7
1 1 1 1 0 1 1 1 1 1 1 1 1 1 2 2 2 2 2 2 2 2 2 3 2 2 1 1 1 1 1 1 1 2 3 4 5 6 6 6 7 7 7
2 2 2 1 1 1 1 1 1 1 1 1 0 0 1 2 3 2 2 2 2 2 2 2 2 2 2 2 2 2 1 1 1 1 2 3 3 3 3 4 5 6 7
3 3 2 2 1 1 3 2 1 0 1 1 0 0 0 1 2 2 2 3 2 2 2 2 2 3 3 3 2 2 2 2 2 1 2 2 2 2 2 3 5 6 7
3 3 3 2 2 4 4 3 2 1 0 0 0 1 1 1 1 1 2 1 0 1 1 3 3 3 3 3 3 3 2 2 1 1 2 2 2 2 2 3 6 7 8
3 3 3 3 3 5 4 3 1 1 1 1 1 1 1 2 2 2 1 1 1 1 1 2 1 1 1 2 3 3 3 2 2 2 2 2 2 2 2 3 7 7 8
3 3 3 3 3 4 4 2 1 1 1 1 1 2 1 2 3 3 1 0 1 1 2 2 2 1 2 1 1 2 3 3 2 2 2 2 2 2 2 2 5 7 7
3 3 3 3 4 4 4 2 2 0 1 1 2 2 4 3 3 3 1 0 0 1 1 1 2 3 3 2 2 2 3 3 2 2 2 2 3 2 2 2 2 4 5
Wind_Direction
144 133 128 137 149 132 147 148 141 127 136 147 158 151 152 126 137 149 134 159 177 187 189 189 189 189 189 188 188 186 186 186 185 183 183 181 177 177 177 178 180 180 178
147 159 157 156 150 154 135 153 155 162 176 156 170 165 189 181 160 188 160 159 180 192 198 201 202 201 199 200 201 200 200 198 195 193 194 192 192 193 193 191 192 194 194
164 191 171 178 161 162 164 192 184 191 192 188 186 193 206 214 191 195 200 183 175 187 198 206 208 208 209 210 209 209 208 206 204 202 202 203 204 206 205 203 200 200 198
195 210 197 184 170 190 190 189 204 204 199 212 207 212 201 195 214 214 213 206 200 186 185 197 208 213 215 216 217 216 214 213 210 208 208 209 212 212 209 206 205 204 202
205 213 208 182 194 198 209 222 184 213 212 221 218 205 214 207 214 218 225 220 208 213 197 180 199 211 219 222 221 221 219 216 215 214 215 215 215 214 211 209 209 209 208
212 221 210 203 213 205 212 218 208 220 231 234 248 227 221 219 223 218 226 223 215 216 221 207 195 203 213 222 225 225 224 223 221 217 218 217 216 214 211 210 213 213 212
215 218 230 204 218 215 221 215 215 210 223 226 238 234 224 218 222 225 231 238 223 220 225 225 227 221 201 207 217 223 226 228 227 222 220 220 219 216 212 214 214 214 213
221 217 223 226 218 216 217 222 222 235 234 222 245 251 242 215 205 210 215 218 232 228 222 223 230 234 245 222 199 211 223 228 231 228 223 220 219 217 214 215 214 213 212
221 230 224 232 232 230 215 220 225 230 240 236 237 257 264 255 242 191 206 220 221 237 242 237 236 234 235 237 219 199 210 218 225 227 224 219 213 209 209 210 213 212 212
224 225 226 229 234 238 230 232 225 235 238 243 232 241 261 293 275 245 215 209 214 233 254 259 253 240 238 238 218 207 195 207 218 221 217 213 210 208 206 208 212 212 213
225 228 223 225 228 237 232 241 239 239 238 242 246 246 245 244 247 257 256 248 243 246 247 254 259 255 240 234 234 209 177 192 201 204 205 207 209 207 203 203 208 211 212
219 220 225 225 232 238 233 235 237 234 246 252 253 254 252 252 247 248 257 252 253 253 250 266 265 253 239 233 215 137 150 170 179 186 190 193 199 201 200 203 207 207 209
219 211 228 226 234 236 238 238 238 245 242 246 248 252 253 256 261 256 257 260 261 262 247 252 257 254 241 231 183 130 147 158 166 171 173 177 184 189 186 188 194 196 196
231 217 224 228 234 239 242 237 245 242 244 249 253 256 259 257 255 250 246 249 256 252 238 243 247 264 273 252 76 128 158 147 155 161 168 175 178 179 173 173 171 173 176
223 214 223 225 231 237 243 241 248 250 251 253 259 255 257 263 257 249 244 241 248 258 255 234 235 277 232 147 116 201 192 136 149 159 165 167 167 169 165 163 159 155 159
226 224 230 237 239 238 236 239 249 251 254 260 268 277 275 273 273 261 254 249 249 255 266 280 244 215 69 83 114 171 143 119 140 159 166 165 166 164 161 163 161 157 158
224 233 236 239 244 244 238 232 246 246 249 265 277 278 280 283 277 270 257 247 243 237 245 260 249 172 189 224 237 229 160 167 132 145 158 161 164 164 163 163 164 162 162
222 227 237 237 245 244 235 232 242 246 249 266 281 292 289 283 273 272 265 252 244 236 235 232 234 232 214 206 203 194 165 151 122 119 139 153 159 162 160 158 157 152 150
206 215 231 234 244 247 231 225 231 235 235 255 279 284 291 293 285 281 272 264 253 237 230 222 226 230 229 209 177 136 104 95 133 131 138 142 149 160 161 156 153 150 149
148 148 162 179 197 198 186 203 211 205 198 229 280 291 302 307 304 299 281 268 254 242 220 212 207 204 211 208 197 193 185 169 177 150 128 131 133 143 149 156 157 155 154
129 126 126 119 116 142 117 129 212 186 170 166 85 8 358 22 24 354 325 306 266 249 230 209 200 196 198 201 200 212 201 176 161 182 163 152 149 147 150 159 164 165 162
130 134 132 139 135 97 74 62 13 147 162 158 94 350 331 103 79 67 42 12 335 279 258 232 224 214 215 214 204 211 213 221 213 187 185 160 154 155 165 157 145 156 159
138 137 134 139 126 95 81 73 42 338 35 51 44 1 344 53 72 76 104 148 78 2 281 257 241 237 223 211 203 207 227 242 249 167 193 162 164 158 165 131 141 155 158
149 141 136 134 125 104 92 85 63 169 79 53 50 48 31 20 21 12 29 30 21 25 323 268 260 254 217 200 203 210 199 191 184 170 206 198 181 174 160 136 143 153 156
152 147 134 128 123 111 103 100 310 150 125 94 70 49 39 60 27 355 16 37 32 54 83 76 65 82 68 88 230 211 199 197 192 172 183 207 176 163 151 142 142 157 162
149 143 128 128 126 115 108 94 328 185 118 111 102 89 64 46 16 347 317 275 285 332 36 119 141 163 167 161 195 232 233 223 207 179 162 198 179 173 165 143 148 156 161